Temp
-0 -1 -1 1 1 -0 -1 -1 -1 1 2 0 1 1 2 2 2 3 3 3 3 3 3 4 4 5 5 5 5 5 5 5 5 5 5 5 6 6 6 6 6 6 6 5
-1 -1 -0 -0 -1 -1 -1 -1 -1 0 1 -0 1 2 2 3 3 3 3 3 3 3 4 4 4 4 4 5 5 5 5 5 5 5 5 5 5 6 6 6 5 6 5 5
-1 -0 -0 -1 -1 -2 -1 -2 -1 -1 -0 0 0 1 2 3 3 3 2 2 3 3 2 2 2 3 4 4 5 5 5 5 5 5 5 5 5 6 6 5 5 5 5 6
-2 -1 -2 -1 -2 -2 -2 -1 -1 -1 -1 -0 -0 1 1 2 1 2 2 2 1 1 1 1 2 2 2 2 3 3 4 5 5 4 5 5 5 6 6 5 5 6 5 5
-1 -1 -1 -2 -1 -1 -1 -1 -1 -0 -1 -1 -1 -0 1 1 3 2 1 1 1 1 1 1 1 1 1 2 2 2 3 3 4 4 5 5 5 5 6 5 5 5 5 5
-2 -2 -2 -2 -1 -1 -1 -1 -1 -1 -1 -1 -0 0 2 1 0 1 1 0 1 0 0 0 1 1 2 2 2 2 3 2 3 4 4 5 5 5 6 6 6 5 5 5
-2 -2 -2 -2 -1 -1 -1 -1 -0 -0 -1 0 0 -1 1 0 -0 -0 -0 -1 -1 -0 -0 0 0 1 1 1 2 3 2 3 2 3 4 5 5 5 6 5 6 6 6 5
-2 -2 -3 -2 -2 -2 -2 -1 -0 -1 -0 -0 -2 -1 -0 -0 -0 -1 -1 -1 -1 -1 -1 -0 -0 -0 -0 -1 -0 2 2 2 2 3 4 5 5 5 5 5 5 5 6 5
-2 -3 -3 -3 -3 -2 -3 -3 -3 -3 -3 -2 -1 -1 -1 -1 -1 -1 -2 -1 -1 -1 -1 -1 -3 -3 -1 -1 -1 -1 1 2 2 3 4 4 5 5 5 6 5 5 5 5
-2 -3 -4 -4 -3 -3 -3 -3 -4 -3 -3 -2 0 -1 -1 -3 -3 -3 -2 -1 -1 -2 -2 -3 -3 -3 -2 -2 -1 -1 1 2 2 3 3 4 4 4 5 4 5 5 5 5
-3 -3 -4 -4 -4 -4 -4 -4 -4 -4 -4 -2 -2 -1 -4 -4 -3 -2 -2 -3 -2 -2 -2 -2 -2 -3 -2 -2 -1 -0 -0 3 3 3 3 3 4 4 3 4 4 4 4 5
-4 -5 -5 -5 -5 -5 -6 -6 -6 -5 -5 -6 -5 -3 -4 -4 -3 -3 -3 -3 -3 -3 -3 -3 -2 -3 -3 -2 -2 -1 0 2 2 2 2 2 2 2 3 3 4 4 4 3
-5 -6 -7 -7 -7 -7 -7 -7 -7 -7 -7 -7 -5 -4 -5 -5 -4 -4 -4 -5 -4 -4 -4 -3 -2 -3 -2 -1 -2 -1 -0 1 1 1 1 0 0 2 2 2 3 3 3 4
-7 -7 -6 -5 -6 -7 -7 -7 -7 -8 -8 -7 -7 -6 -5 -5 -5 -5 -5 -5 -5 -5 -4 -4 -3 -2 -2 -2 -2 -1 -0 0 1 0 -0 -0 0 1 1 1 1 2 3 3
-8 -8 -8 -8 -7 -8 -8 -8 -8 -9 -9 -9 -8 -7 -5 -6 -6 -5 -6 -5 -6 -6 -4 -5 -4 -3 -3 -3 -2 -2 -1 -1 0 1 -0 -0 -0 0 0 1 0 1 1 1
-8 -8 -9 -9 -9 -9 -9 -9 -9 -9 -9 -9 -9 -7 -6 -6 -6 -6 -6 -6 -6 -5 -5 -5 -5 -5 -4 -4 -3 -2 -2 -1 -1 -0 0 0 -0 0 1 1 1 0 1 1
-9 -9 -10 -9 -10 -10 -9 -8 -9 -9 -9 -8 -9 -7 -8 -7 -7 -7 -7 -7 -7 -6 -5 -5 -5 -6 -5 -4 -3 -3 -2 -2 -1 -0 -0 0 0 1 1 0 0 0 0 1
-10 -10 -10 -10 -10 -9 -8 -9 -9 -8 -8 -8 -8 -8 -8 -8 -8 -7 -7 -7 -7 -6 -6 -6 -7 -7 -6 -6 -5 -4 -3 -3 -2 -1 -1 -1 -0 1 0 0 0 -0 -0 -0
-10 -10 -10 -10 -10 -9 -8 -10 -9 -9 -9 -9 -8 -8 -8 -8 -8 -8 -8 -7 -7 -6 -6 -6 -7 -7 -7 -6 -6 -6 -5 -4 -3 -2 -1 -1 -1 -1 -1 -0 -1 -0 -0 0
-9 -10 -11 -11 -10 -10 -9 -8 -8 -8 -9 -8 -9 -9 -8 -8 -8 -8 -8 -8 -7 -7 -7 -7 -7 -7 -7 -7 -6 -6 -5 -5 -4 -4 -3 -2 -2 -1 -1 -1 -1 -1 -1 -1
-10 -11 -11 -11 -10 -10 -9 -9 -9 -8 -9 -8 -9 -8 -8 -8 -8 -8 -8 -8 -8 -8 -7 -7 -7 -7 -7 -7 -7 -6 -6 -5 -5 -5 -5 -5 -4 -3 -2 -2 -2 -2 -1 -2
-10 -10 -11 -11 -11 -9 -9 -9 -9 -9 -9 -9 -9 -9 -8 -8 -8 -8 -8 -8 -8 -8 -8 -8 -8 -7 -7 -7 -7 -7 -6 -7 -7 -7 -6 -6 -5 -5 -5 -4 -4 -4 -3 -3
-9 -10 -10 -10 -10 -10 -10 -9 -9 -9 -9 -9 -9 -8 -9 -8 -8 -8 -8 -8 -8 -8 -8 -8 -8 -8 -8 -7 -7 -7 -6 -7 -7 -7 -7 -6 -6 -6 -6 -6 -6 -5 -5 -5
-10 -10 -10 -10 -10 -10 -10 -10 -9 -9 -9 -9 -9 -9 -9 -8 -8 -8 -8 -8 -8 -8 -8 -8 -8 -8 -8 -7 -7 -7 -7 -6 -7 -7 -7 -7 -7 -7 -7 -7 -6 -6 -6 -6
-9 -9 -9 -9 -9 -9 -10 -9 -9 -9 -9 -9 -9 -8 -8 -8 -8 -8 -8 -8 -8 -8 -8 -8 -8 -8 -8 -7 -7 -7 -7 -7 -7 -7 -7 -7 -7 -7 -7 -7 -6 -6 -6 -7
-9 -9 -9 -9 -9 -9 -9 -9 -9 -9 -9 -9 -9 -9 -8 -8 -8 -8 -9 -8 -8 -8 -8 -9 -8 -8 -8 -8 -8 -8 -8 -7 -7 -8 -7 -7 -7 -7 -7 -7 -7 -7 -7 -7
Height
3051 3049 3043 3050 3052 3054 3055 3054 3054 3054 3056 3051 3051 3049 3051 3053 3052 3052 3053 3052 3050 3052 3053 3052 3052 3051 3051 3052 3053 3054 3057 3060 3062 3063 3065 3067 3071 3076 3079 3084 3089 3091 3093 3096
3047 3041 3045 3049 3049 3049 3050 3050 3049 3049 3051 3047 3046 3041 3044 3046 3046 3046 3046 3046 3045 3045 3045 3045 3044 3042 3041 3042 3042 3044 3046 3049 3052 3053 3056 3058 3061 3065 3069 3074 3077 3082 3085 3088
3040 3040 3041 3042 3043 3045 3045 3045 3046 3047 3046 3044 3040 3035 3036 3038 3040 3039 3040 3040 3039 3037 3036 3036 3036 3035 3033 3031 3031 3033 3034 3036 3039 3042 3045 3046 3048 3051 3055 3059 3066 3072 3077 3080
3035 3034 3035 3038 3039 3042 3040 3042 3043 3044 3044 3043 3041 3034 3032 3033 3033 3035 3035 3034 3033 3031 3030 3029 3028 3027 3025 3024 3023 3021 3022 3023 3026 3029 3032 3034 3038 3041 3046 3051 3059 3064 3067 3070
3028 3027 3027 3031 3033 3037 3037 3038 3040 3040 3039 3039 3038 3039 3026 3029 3029 3030 3030 3029 3028 3026 3024 3021 3020 3018 3017 3015 3014 3013 3012 3013 3013 3016 3019 3023 3027 3033 3038 3043 3048 3053 3057 3061
3027 3026 3026 3027 3030 3033 3034 3036 3037 3036 3036 3033 3030 3033 3019 3023 3025 3026 3025 3024 3023 3020 3017 3014 3011 3008 3006 3003 3002 3002 3002 3002 3002 3003 3006 3010 3016 3024 3028 3032 3038 3043 3047 3052
3025 3025 3023 3025 3026 3028 3031 3032 3032 3032 3031 3025 3026 3027 3018 3020 3019 3019 3019 3018 3016 3014 3011 3007 3003 2998 2993 2989 2987 2987 2989 2991 2991 2992 2994 2998 3005 3012 3018 3023 3028 3034 3038 3042
3021 3023 3021 3021 3022 3025 3026 3027 3026 3023 3023 3025 3026 3019 3016 3016 3015 3012 3012 3010 3009 3007 3004 2999 2995 2989 2983 2978 2974 2974 2976 2979 2981 2981 2983 2987 2994 3000 3007 3014 3018 3023 3028 3035
3019 3019 3018 3018 3020 3022 3022 3023 3024 3024 3024 3024 3018 3014 3014 3011 3010 3008 3007 3005 3003 3001 2996 2990 2985 2981 2976 2972 2968 2965 2967 2970 2972 2974 2975 2978 2984 2990 2997 3003 3009 3013 3018 3025
3017 3017 3016 3017 3018 3018 3019 3020 3022 3023 3022 3015 3007 3010 3006 3006 3006 3005 3004 3002 2998 2995 2991 2987 2981 2975 2970 2967 2962 2960 2960 2962 2965 2967 2969 2972 2977 2983 2988 2993 2999 3004 3009 3013
3012 3013 3015 3015 3015 3014 3015 3015 3017 3019 3018 3014 3009 3004 3003 3002 3002 3001 2999 2996 2993 2990 2987 2982 2977 2971 2967 2963 2958 2956 2955 2957 2959 2962 2964 2967 2970 2976 2980 2986 2991 2995 3001 3006
3008 3010 3011 3011 3009 3010 3009 3010 3011 3013 3014 3013 3013 3001 2998 2998 2998 2997 2995 2992 2990 2986 2984 2979 2974 2970 2965 2959 2954 2953 2952 2951 2954 2956 2957 2962 2966 2972 2974 2979 2983 2988 2992 2998
3004 3006 3008 3009 3010 3007 3006 3007 3009 3010 3011 3010 3011 2997 2996 2995 2994 2994 2992 2990 2986 2982 2981 2976 2971 2966 2961 2956 2952 2950 2949 2948 2949 2950 2952 2956 2960 2964 2966 2971 2977 2980 2986 2990
3001 3001 3002 3002 3002 3003 3004 3005 3006 3006 3005 3002 2998 2995 2992 2994 2990 2990 2988 2987 2984 2979 2979 2973 2968 2962 2956 2952 2951 2949 2947 2947 2946 2946 2947 2950 2953 2955 2960 2965 2970 2975 2979 2983
2998 2997 2998 2997 2998 2999 2999 3000 2999 2997 2996 2996 2991 2987 2986 2989 2986 2984 2984 2983 2981 2977 2977 2972 2966 2960 2954 2950 2948 2947 2946 2945 2944 2945 2946 2948 2951 2955 2957 2960 2963 2967 2970 2973
2992 2992 2992 2993 2994 2993 2990 2990 2989 2988 2987 2986 2983 2975 2983 2980 2980 2980 2979 2979 2977 2975 2975 2970 2964 2959 2954 2950 2947 2945 2944 2943 2943 2943 2942 2944 2948 2949 2952 2955 2954 2953 2956 2965
2988 2989 2990 2987 2988 2988 2984 2980 2981 2982 2980 2978 2973 2972 2974 2974 2975 2976 2977 2975 2974 2973 2973 2969 2964 2959 2955 2951 2947 2944 2943 2942 2942 2942 2943 2945 2946 2945 2948 2949 2946 2944 2948 2954
2982 2985 2986 2985 2986 2984 2978 2977 2977 2975 2973 2970 2967 2966 2967 2970 2972 2973 2973 2973 2973 2973 2971 2967 2964 2961 2957 2954 2950 2946 2943 2943 2941 2941 2942 2943 2945 2946 2947 2948 2948 2948 2951 2954
2977 2980 2983 2983 2982 2976 2973 2973 2973 2971 2969 2966 2963 2962 2964 2967 2970 2971 2971 2972 2972 2972 2970 2968 2966 2962 2960 2957 2953 2950 2946 2943 2941 2941 2941 2941 2943 2944 2945 2946 2944 2949 2950 2950
2973 2976 2981 2980 2980 2975 2971 2970 2968 2967 2966 2965 2963 2964 2966 2967 2968 2969 2971 2971 2972 2971 2970 2969 2967 2965 2963 2960 2957 2955 2951 2948 2944 2941 2941 2942 2942 2942 2943 2943 2945 2946 2947 2952
2972 2975 2976 2978 2978 2973 2970 2966 2963 2966 2970 2962 2961 2963 2965 2967 2969 2970 2971 2972 2972 2972 2972 2971 2970 2969 2966 2963 2962 2959 2956 2953 2949 2948 2947 2945 2944 2943 2944 2944 2944 2946 2947 2946
2972 2973 2974 2976 2977 2974 2970 2966 2966 2967 2964 2962 2961 2963 2966 2968 2969 2970 2972 2973 2974 2974 2974 2974 2973 2972 2969 2967 2965 2963 2961 2957 2957 2955 2953 2951 2950 2949 2948 2947 2946 2947 2948 2948
2973 2973 2973 2975 2974 2972 2970 2968 2966 2965 2964 2963 2963 2965 2967 2968 2970 2972 2973 2974 2975 2975 2976 2975 2975 2973 2972 2971 2969 2967 2965 2964 2962 2961 2959 2957 2956 2955 2953 2953 2952 2951 2952 2952
2971 2971 2971 2974 2973 2971 2970 2969 2968 2968 2967 2967 2967 2967 2969 2971 2972 2974 2975 2976 2976 2977 2977 2976 2975 2975 2975 2974 2973 2971 2969 2968 2966 2965 2964 2963 2962 2961 2960 2959 2958 2957 2956 2956
2972 2972 2972 2972 2972 2972 2971 2971 2970 2970 2971 2971 2971 2971 2972 2974 2975 2976 2977 2978 2979 2979 2979 2978 2978 2977 2976 2975 2975 2973 2973 2971 2970 2969 2967 2966 2965 2965 2963 2963 2962 2961 2960 2960
2973 2972 2973 2973 2972 2973 2973 2973 2973 2973 2974 2974 2974 2975 2975 2976 2977 2978 2979 2980 2981 2981 2981 2980 2979 2978 2978 2977 2976 2976 2975 2974 2972 2971 2970 2968 2967 2966 2965 2964 2963 2963 2962 2962
Wind_Speed
29 33 37 29 23 21 20 23 25 26 19 24 24 26 24 20 22 23 22 23 25 22 20 26 30 32 34 34 37 41 41 40 37 39 38 44 52 52 48 45 38 34 32 37
26 31 28 23 21 19 16 17 21 20 12 19 23 31 28 23 20 18 19 20 20 22 22 23 27 32 35 35 35 38 45 43 42 40 39 37 39 48 53 49 45 39 35 35
26 16 10 23 21 21 22 23 21 20 17 20 24 26 15 3 13 17 12 14 13 16 17 17 19 22 27 33 34 34 37 45 44 42 40 41 37 42 49 51 47 42 36 34
22 23 25 16 14 14 20 18 15 14 13 9 12 10 12 7 8 12 11 10 12 14 16 21 19 18 18 23 28 29 30 37 45 43 43 44 41 40 40 49 43 38 41 38
15 7 14 27 23 11 15 7 8 10 14 16 13 11 10 10 11 12 12 10 18 24 26 26 26 25 27 29 27 29 28 34 38 43 38 43 43 37 35 39 40 41 44 41
13 7 8 11 10 11 9 8 10 13 14 8 17 15 11 4 4 9 14 20 25 21 23 26 31 36 34 39 35 32 31 28 32 45 46 39 43 39 34 39 39 38 31 43
13 13 15 13 13 13 13 8 3 4 4 4 5 13 20 22 18 14 18 22 21 23 26 32 38 42 44 35 36 39 37 31 29 36 43 44 45 43 40 34 37 39 38 37
11 6 13 10 12 10 12 12 6 5 4 1 5 9 5 11 14 17 20 23 24 24 30 37 40 39 36 35 28 29 30 32 29 24 38 40 47 47 44 40 32 33 38 35
10 9 13 12 12 9 9 6 8 2 7 6 10 12 17 21 19 20 19 24 25 29 35 32 26 24 27 26 24 23 26 27 27 22 27 33 43 45 48 44 40 34 39 39
15 5 14 13 10 8 10 9 4 5 4 6 6 9 9 5 11 18 20 26 28 25 23 26 27 24 24 24 16 14 19 25 25 23 28 30 35 38 37 38 38 39 41 43
17 14 7 11 7 10 13 12 11 10 7 4 5 6 9 7 8 15 22 30 31 28 29 26 28 22 22 22 16 12 13 17 22 21 22 28 29 32 31 34 35 35 38 39
13 7 7 8 13 15 11 9 13 7 4 6 6 12 15 18 22 22 28 31 30 31 29 24 28 22 27 20 16 12 11 11 19 20 26 27 22 25 32 33 34 35 39 39
11 6 5 2 4 8 8 11 3 7 10 12 8 8 10 17 28 28 31 31 25 27 29 23 25 23 21 17 13 11 7 11 14 16 26 32 22 23 22 27 32 32 35 42
10 9 10 5 3 5 9 13 14 13 11 15 25 28 30 27 35 36 34 30 26 24 30 22 23 22 20 14 9 9 7 7 14 19 14 16 19 17 24 20 22 26 33 36
7 9 11 11 13 16 19 19 22 24 26 22 31 37 37 31 33 35 30 29 21 21 28 20 17 16 14 11 7 7 8 14 9 13 19 9 19 18 17 20 23 30 39 42
14 9 9 13 15 16 19 22 25 26 29 31 34 42 32 35 32 29 24 19 13 14 19 12 12 13 14 10 7 7 7 8 12 12 10 11 15 16 17 19 28 35 33 51
11 8 6 5 7 11 18 5 4 9 16 21 31 29 28 26 25 22 15 9 9 9 12 6 11 15 16 14 12 6 8 5 5 7 7 15 14 13 18 14 10 18 32 36
17 11 6 5 8 4 2 5 13 14 14 18 19 19 20 17 17 16 9 2 5 5 2 8 12 15 18 20 21 18 11 7 6 2 7 10 11 14 16 17 20 23 15 24
21 18 6 3 5 14 8 2 10 14 18 8 7 10 10 10 12 7 2 2 3 3 9 13 14 16 17 18 20 21 18 11 8 6 8 5 11 11 9 21 24 20 30 27
9 19 14 7 3 3 3 10 21 21 10 7 8 6 13 11 7 6 8 7 8 11 13 14 15 16 15 18 20 19 17 18 16 14 9 7 4 7 13 13 20 31 25 31
9 11 16 11 4 7 14 22 4 6 4 7 7 13 13 6 5 9 10 9 11 13 13 15 15 14 16 18 19 17 18 20 24 24 21 19 13 8 3 4 6 12 18 10
4 7 7 7 4 5 13 5 3 2 4 2 8 10 9 7 9 11 11 11 12 12 13 13 13 14 15 16 16 16 16 24 23 23 21 21 20 18 17 13 9 7 3 5
3 5 5 7 5 7 7 7 7 6 5 6 7 10 9 9 12 14 13 12 12 12 11 12 13 14 14 15 16 16 18 20 21 20 19 19 20 19 19 17 16 14 12 11
3 3 7 5 3 4 5 6 6 7 8 10 12 14 15 13 14 12 12 11 11 11 10 12 13 13 12 13 14 14 15 16 17 16 16 17 16 16 15 14 13 12 11 10
4 6 5 4 2 3 6 6 7 8 9 9 11 13 13 12 12 12 11 10 10 10 10 11 11 12 12 14 14 14 14 14 14 14 14 14 14 13 12 11 11 10 10 9
3 4 4 3 1 1 3 5 7 8 8 9 10 10 10 12 11 11 10 9 9 9 8 10 10 11 11 12 13 14 14 13 13 14 13 13 13 13 12 12 11 10 9 8
Wind_Direction
236 232 233 248 254 261 264 266 272 278 283 279 279 279 279 275 265 266 271 273 272 277 279 276 275 272 268 264 256 251 247 244 245 245 241 243 238 238 241 239 234 238 240 236
228 238 244 249 248 246 247 262 267 279 284 286 285 281 282 278 277 271 264 271 286 291 279 269 266 269 269 265 261 254 248 245 246 248 251 248 245 240 241 240 236 235 239 237
236 240 259 236 241 238 249 256 264 276 289 285 298 293 291 278 286 272 299 309 299 292 289 293 287 285 276 269 264 259 252 246 243 247 247 248 244 234 234 235 235 235 233 236
252 251 242 217 227 242 258 257 269 268 277 281 304 296 276 295 192 316 312 312 314 302 295 300 301 293 289 268 258 256 257 249 241 240 245 245 249 241 239 240 240 229 234 231
229 227 225 230 240 231 259 239 261 262 259 273 273 268 292 210 273 307 317 302 314 306 303 299 295 296 289 277 270 257 253 254 245 233 237 241 241 241 237 237 236 233 232 232
216 193 207 206 210 217 249 252 255 257 247 252 247 222 290 197 333 299 298 306 310 306 304 304 310 308 295 291 278 257 253 255 252 236 234 240 234 235 233 232 234 234 235 231
225 237 240 231 230 238 237 215 227 223 197 258 191 212 245 292 292 280 289 304 302 305 305 308 309 311 307 295 273 257 253 248 250 245 242 242 226 228 230 230 232 235 236 235
199 207 219 226 215 206 208 203 209 237 213 153 197 248 246 281 278 284 294 297 301 304 307 307 303 303 301 303 289 255 249 247 236 248 240 236 221 224 226 226 221 227 231 236
219 213 199 187 180 183 190 195 210 258 266 268 236 252 265 265 262 276 291 298 305 313 317 318 313 303 309 301 287 270 246 236 239 247 240 229 223 225 227 231 227 230 226 226
226 197 212 211 220 230 219 215 200 193 239 246 253 247 227 270 285 297 309 305 302 315 327 326 316 302 308 305 287 284 260 241 238 245 238 218 222 227 230 222 219 227 222 221
220 222 223 210 222 227 242 243 220 221 225 251 282 244 228 247 307 302 319 328 331 317 314 322 328 312 315 305 296 278 270 231 231 242 243 226 217 217 211 218 225 227 224 225
215 213 201 224 250 255 244 204 197 185 218 228 259 263 262 275 284 293 311 323 322 320 313 321 324 316 311 310 305 266 290 242 226 241 227 220 222 215 215 217 222 225 220 221
217 193 151 126 193 186 175 158 165 233 249 234 236 252 265 281 286 290 310 318 321 329 311 309 314 315 311 309 306 276 264 269 220 234 222 224 226 212 204 214 221 220 220 222
240 223 218 216 169 182 220 245 267 264 243 253 240 269 263 273 286 289 296 305 308 331 317 323 319 314 316 319 308 295 268 258 239 240 249 218 218 220 216 215 236 231 227 229
239 242 248 259 263 263 260 260 262 255 256 249 265 264 273 280 280 286 294 300 296 324 310 319 321 330 337 329 302 294 287 256 243 222 219 232 218 228 234 239 237 245 230 228
246 254 258 256 275 275 271 268 264 262 266 261 264 269 275 273 278 288 291 283 289 324 308 320 352 5 9 353 330 309 289 249 259 250 231 217 247 237 238 249 257 248 227 230
245 237 237 258 248 294 288 281 225 298 287 284 261 275 270 268 272 281 271 267 306 309 297 2 26 35 35 29 23 23 4 36 247 238 254 233 249 230 243 253 244 215 205 194
247 242 241 269 298 237 210 307 306 331 281 288 280 258 254 261 272 256 226 316 323 283 353 51 42 40 38 37 33 36 38 20 33 3 247 251 246 246 249 224 187 177 187 171
236 232 227 238 231 283 289 222 341 331 315 303 277 257 259 235 202 189 157 158 185 121 73 60 51 47 43 40 40 34 34 34 28 19 8 333 269 253 269 223 232 209 200 179
211 213 214 207 244 261 253 304 309 308 262 289 243 201 182 166 165 162 145 130 106 85 72 63 56 52 47 47 44 39 41 53 58 53 27 23 2 344 267 243 216 206 206 208
145 186 207 216 254 285 304 319 351 160 285 303 207 188 192 168 165 154 138 119 99 89 79 70 68 64 55 52 47 44 53 59 59 56 50 45 43 51 79 156 232 216 211 196
176 168 192 207 226 284 333 328 112 33 341 46 127 158 174 181 161 147 132 116 105 93 85 80 74 67 61 55 48 42 46 58 56 57 56 58 57 56 57 54 61 66 200 241
155 215 189 188 219 284 335 36 53 35 51 90 120 139 140 138 134 132 124 113 104 95 88 80 73 67 61 60 55 47 51 58 56 53 55 56 56 56 58 55 54 48 51 57
112 150 159 143 158 25 36 49 52 82 88 103 113 116 116 124 124 120 115 108 102 94 87 78 67 60 55 57 56 51 47 45 46 43 42 46 50 52 53 52 51 54 47 44
143 152 174 151 121 40 41 60 84 91 92 98 107 114 117 116 116 112 110 108 101 92 81 72 62 56 49 49 46 45 42 42 39 37 36 36 37 35 34 33 32 30 27 29
103 144 168 186 188 163 114 83 94 98 99 102 105 108 116 118 116 114 111 108 101 92 81 71 65 60 51 44 39 34 34 33 34 30 27 28 28 26 25 23 20 18 17 13